KUIPER-00101 (65947 NORAD) Tracking and Keplerian Element Data

This shows tracking and keplerian element data for the satellite.

Feedback or suggestion? Click here.




ElementValue
Catalog65947
NameKUIPER-00101
Epoch Orbit495
Epoch Day354.25003472
Epoch Year2025
RAAN352.0218
Inclination51.8993
Eccentricity0.0003396
Argument of Perigee63.9038
Mean Anonmoly59.4142
Mean Motion14.84059085
Decay Rate-0.00043321
L11 65947U 25228A 25354.25003472 -.00043321 00000+0 -51513-2 0 9993
L22 65947 51.8993 352.0218 0003396 63.9038 59.4142 14.84059085 4956



Live tracking and technical data element details for KUIPER-00101 (NORAD 65947). KUIPER-00101 can be tracked NOW for your location showing map with azimuth and elevation plus other details from your city location.







IsCatalogInMostPopularTable: catalog: 65947, numindb: 5
Update: records affected: 1



GetName: 65947 KUIPER-00101

Hit Count: updated at: Mon, 20 Apr 2026 10:18:41 GMT